Location: Newark
(40.9833°N, 0.0333°W)
Time: 14:39:29
(UTC+00:00)

XW-2B - Visible Passes

Search period start: 22 November 2019 00:00
Search period end: 02 December 2019 00:00
Orbit: 508 x 528 km, 97.5° (Epoch: 22 November)

Date Brightness Start Highest point End Pass type
(mag) Time Alt. Az. Time Alt. Az. Time Alt. Az.
22 Nov ? 06:17:39 10° N 06:21:24 58° WNW 06:25:08 10° SSW visible
23 Nov ? 06:03:29 10° NNE 06:07:19 89° W 06:11:08 10° SSW visible
23 Nov ? 18:19:48 10° WSW 18:21:36 13° W 18:23:27 10° WNW visible
24 Nov ? 05:49:25 10° NNE 05:53:12 59° E 05:56:58 10° S visible
24 Nov ? 18:04:39 10° SW 18:07:23 19° W 18:10:08 10° NW visible
25 Nov ? 05:35:28 10° NNE 05:39:03 39° E 05:42:38 10° SSE visible
25 Nov ? 17:49:57 10° SSW 17:53:12 28° W 17:56:27 10° NW visible
26 Nov ? 05:21:38 10° NE 05:24:53 26° E 05:28:07 10° SSE visible
26 Nov ? 17:35:28 10° S 17:39:01 42° W 17:42:36 10° NNW visible
27 Nov ? 05:08:00 10° NE 05:10:40 18° E 05:13:21 10° SE visible
27 Nov ? 17:21:10 10° S 17:24:52 66° W 17:28:36 10° NNW visible
28 Nov ? 04:54:48 10° ENE 04:56:27 12° E 04:58:05 10° ESE visible
28 Nov ? 06:27:07 10° N 06:30:46 44° WNW 06:34:24 10° SW visible
28 Nov ? 17:07:01 10° SSE 17:10:45 80° ENE 17:14:30 10° N visible
29 Nov ? 06:12:52 10° N 06:16:41 68° WNW 06:20:29 10° SSW visible
29 Nov ? 18:30:59 10° W 18:31:04 10° W 18:31:09 10° W visible
30 Nov ? 05:58:44 10° NNE 06:02:35 80° ESE 06:06:24 10° S visible
30 Nov ? 18:14:36 10° SW 18:16:48 15° W 18:19:03 10° NW visible
01 Dec ? 05:44:41 10° NNE 05:48:26 51° E 05:52:10 10° S visible
01 Dec ? 17:59:38 10° SSW 18:02:34 22° W 18:05:33 10° NW visible
